| time (UTC) | temp F | wind direction | speed knots | gust knots | rain 1hr in | rain 24hr in | rain mn in | humidity % | barometer mb |
| 20260906123139 | 73 | 352 | 0.0 | 0.0 | 0.00 | 0.00 | 0.00 | 99 | 1012.8 |
| 20260906122638 | 73 | 283 | 0.0 | 0.0 | 0.00 | 0.00 | 0.00 | 99 | 1012.8 |
| 20260906122204 | 73 | 0 | 0.0 | 0.0 | 0.00 | 0.03 | 0.00 | 94 | 1013.1 |
| 20260906122134 | 73 | 268 | 0.0 | 0.9 | 0.00 | 0.00 | 0.00 | 99 | 1012.8 |
| 20260906121704 | 73 | 0 | 0.0 | 0.0 | 0.00 | 0.03 | 0.00 | 94 | 1013.1 |
| 20260906121630 | 73 | 339 | 0.0 | 0.9 | 0.00 | 0.00 | 0.00 | 99 | 1012.8 |
| 20260906121126 | 73 | 172 | 0.0 | 0.9 | 0.00 | 0.00 | 0.00 | 99 | 1013.0 |
| 20260906120621 | 73 | 309 | 0.0 | 0.0 | 0.00 | 0.00 | 0.00 | 99 | 1012.8 |
| 20260906120204 | 73 | 0 | 0.0 | 0.0 | 0.00 | 0.03 | 0.00 | 94 | 1013.0 |
| 20260906120118 | 73 | 284 | 0.0 | 0.9 | 0.00 | 0.00 | 0.00 | 99 | 1012.8 |
| 20260906115704 | 73 | 0 | 0.0 | 0.0 | 0.00 | 0.03 | 0.00 | 94 | 1013.0 |
| 20260906115613 | 73 | 326 | 0.0 | 0.9 | 0.00 | 0.00 | 0.00 | 99 | 1012.7 |
| 20260906115204 | 73 | 0 | 0.0 | 0.0 | 0.00 | 0.03 | 0.00 | 94 | 1012.9 |
| 20260906115108 | 73 | 327 | 0.9 | 1.7 | 0.00 | 0.00 | 0.00 | 99 | 1012.9 |
| 20260906114602 | 73 | 0 | 0.0 | 0.9 | 0.00 | 0.00 | 0.00 | 99 | 1012.5 |
| 20260906114057 | 73 | 124 | 0.0 | 0.9 | 0.00 | 0.00 | 0.00 | 99 | 1012.4 |
| 20260906113705 | 73 | 5 | 0.0 | 0.0 | 0.00 | 0.03 | 0.00 | 94 | 1012.7 |
| 20260906113556 | 73 | 183 | 0.0 | 0.9 | 0.00 | 0.00 | 0.00 | 99 | 1012.5 |
| 20260906113051 | 73 | 304 | 0.0 | 0.0 | 0.00 | 0.00 | 0.00 | 99 | 1012.4 |
| 20260906112705 | 73 | 22 | 0.0 | 0.0 | 0.00 | 0.03 | 0.00 | 94 | 1012.7 |
| 20260906112546 | 73 | 341 | 1.7 | 1.7 | 0.00 | 0.00 | 0.00 | 99 | 1012.6 |
| 20260906112043 | 73 | 289 | 0.0 | 0.9 | 0.00 | 0.00 | 0.00 | 99 | 1012.4 |
| 20260906111704 | 73 | 40 | 0.0 | 0.0 | 0.00 | 0.03 | 0.00 | 94 | 1012.5 |
| 20260906111542 | 73 | 297 | 0.0 | 0.9 | 0.00 | 0.00 | 0.00 | 99 | 1012.2 |
| 20260906111038 | 73 | 67 | 0.0 | 0.9 | 0.00 | 0.00 | 0.00 | 99 | 1012.3 |
| 20260906110537 | 73 | 329 | 0.0 | 0.9 | 0.00 | 0.00 | 0.00 | 99 | 1012.0 |
| 20260906110204 | 73 | 40 | 0.0 | 0.0 | 0.00 | 0.03 | 0.00 | 94 | 1012.0 |
| 20260906110037 | 73 | 296 | 0.0 | 1.7 | 0.00 | 0.00 | 0.00 | 99 | 1011.8 |
| 20260906105531 | 73 | 334 | 1.7 | 1.7 | 0.00 | 0.00 | 0.00 | 99 | 1012.0 |
| 20260906105028 | 73 | 248 | 0.0 | 1.7 | 0.00 | 0.00 | 0.00 | 99 | 1011.9 |
| 20260906104526 | 73 | 297 | 0.0 | 1.7 | 0.00 | 0.00 | 0.00 | 99 | 1011.9 |
| 20260906104021 | 73 | 269 | 0.0 | 0.9 | 0.00 | 0.00 | 0.00 | 99 | 1011.8 |
| 20260906103704 | 73 | 40 | 0.0 | 0.9 | 0.00 | 0.03 | 0.00 | 94 | 1011.9 |
| 20260906103519 | 73 | 32 | 0.0 | 0.9 | 0.00 | 0.00 | 0.00 | 99 | 1011.9 |
| 20260906103204 | 73 | 40 | 0.0 | 0.9 | 0.00 | 0.03 | 0.00 | 94 | 1011.9 |
| 20260906103015 | 73 | 309 | 0.0 | 0.9 | 0.00 | 0.00 | 0.00 | 99 | 1011.7 |
| 20260906102514 | 73 | 286 | 0.0 | 0.9 | 0.00 | 0.00 | 0.00 | 99 | 1011.7 |
| 20260906102204 | 73 | 40 | 0.0 | 0.0 | 0.00 | 0.03 | 0.00 | 94 | 1011.9 |
| 20260906102009 | 73 | 157 | 0.0 | 0.9 | 0.00 | 0.00 | 0.00 | 99 | 1011.7 |
| 20260906101703 | 73 | 40 | 0.0 | 0.0 | 0.00 | 0.03 | 0.00 | 94 | 1011.8 |
| 20260906101504 | 73 | 209 | 0.0 | 0.0 | 0.00 | 0.00 | 0.00 | 99 | 1011.7 |
| 20260906101204 | 73 | 40 | 0.0 | 0.0 | 0.00 | 0.03 | 0.00 | 94 | 1011.7 |
| 20260906100958 | 73 | 322 | 0.0 | 0.9 | 0.00 | 0.00 | 0.00 | 99 | 1011.6 |
| 20260906100704 | 73 | 40 | 0.0 | 0.9 | 0.00 | 0.03 | 0.00 | 94 | 1011.6 |
| 20260906100453 | 73 | 297 | 0.0 | 1.7 | 0.00 | 0.00 | 0.00 | 99 | 1011.6 |
| 20260906100204 | 73 | 40 | 0.0 | 0.9 | 0.00 | 0.03 | 0.00 | 94 | 1011.5 |
| 20260906095948 | 73 | 329 | 0.0 | 0.9 | 0.00 | 0.00 | 0.00 | 99 | 1011.5 |
| 20260906095444 | 73 | 351 | 0.0 | 1.7 | 0.00 | 0.00 | 0.00 | 99 | 1011.4 |
| 20260906094938 | 73 | 309 | 0.0 | 1.7 | 0.00 | 0.00 | 0.00 | 99 | 1011.3 |
| 20260906094704 | 73 | 40 | 0.0 | 0.9 | 0.00 | 0.03 | 0.00 | 94 | 1011.3 |
| 20260906094432 | 73 | 255 | 0.0 | 0.9 | 0.00 | 0.00 | 0.00 | 99 | 1011.2 |
| 20260906094204 | 73 | 63 | 0.9 | 2.6 | 0.00 | 0.03 | 0.00 | 94 | 1011.3 |
| 20260906093928 | 73 | 299 | 0.0 | 0.9 | 0.00 | 0.00 | 0.00 | 99 | 1011.3 |
| 20260906093704 | 73 | 50 | 0.0 | 0.9 | 0.00 | 0.03 | 0.00 | 94 | 1011.1 |
| 20260906093425 | 73 | 50 | 0.0 | 0.9 | 0.00 | 0.00 | 0.00 | 99 | 1011.2 |
| 20260906092924 | 73 | 269 | 0.0 | 0.9 | 0.00 | 0.00 | 0.00 | 99 | 1011.1 |
| 20260906092704 | 72 | 28 | 0.0 | 0.0 | 0.00 | 0.03 | 0.00 | 94 | 1011.1 |
| 20260906092419 | 73 | 322 | 0.0 | 1.7 | 0.00 | 0.00 | 0.00 | 99 | 1011.3 |
| 20260906091914 | 72 | 297 | 0.0 | 1.7 | 0.00 | 0.00 | 0.00 | 99 | 1011.1 |
| 20260906091705 | 72 | 28 | 0.0 | 0.0 | 0.00 | 0.03 | 0.00 | 94 | 1011.0 |
| 20260906091410 | 72 | 117 | 0.0 | 0.0 | 0.00 | 0.00 | 0.00 | 99 | 1010.8 |
| 20260906090907 | 72 | 117 | 0.0 | 0.0 | 0.00 | 0.00 | 0.00 | 99 | 1010.8 |
| 20260906090704 | 72 | 28 | 0.0 | 0.0 | 0.00 | 0.03 | 0.00 | 93 | 1011.0 |
| 20260906090406 | 72 | 187 | 0.0 | 0.9 | 0.00 | 0.00 | 0.00 | 99 | 1010.9 |
| 20260906085900 | 72 | 310 | 0.0 | 0.0 | 0.00 | 0.00 | 0.00 | 99 | 1011.0 |
| 20260906085354 | 72 | 310 | 0.0 | 0.0 | 0.00 | 0.00 | 0.00 | 99 | 1011.0 |
| 20260906085204 | 72 | 28 | 0.0 | 0.0 | 0.00 | 0.03 | 0.00 | 93 | 1011.0 |
| 20260906084849 | 72 | 323 | 0.0 | 0.9 | 0.00 | 0.00 | 0.00 | 99 | 1010.9 |
| 20260906084348 | 72 | 62 | 0.0 | 0.0 | 0.00 | 0.00 | 0.00 | 99 | 1010.8 |
| 20260906083843 | 72 | 309 | 0.0 | 0.0 | 0.00 | 0.00 | 0.00 | 99 | 1010.7 |
| 20260906083338 | 72 | 309 | 0.0 | 0.0 | 0.00 | 0.00 | 0.00 | 99 | 1010.8 |
| 20260906082832 | 72 | 309 | 0.0 | 0.0 | 0.00 | 0.00 | 0.00 | 99 | 1010.7 |
| 20260906082703 | 72 | 28 | 0.0 | 0.0 | 0.00 | 0.03 | 0.00 | 93 | 1010.8 |
| 20260906082327 | 72 | 309 | 0.0 | 0.0 | 0.00 | 0.00 | 0.00 | 99 | 1010.9 |
| 20260906081824 | 71 | 19 | 0.0 | 0.0 | 0.00 | 0.00 | 0.00 | 99 | 1010.9 |
| 20260906081319 | 71 | 19 | 0.0 | 0.9 | 0.00 | 0.00 | 0.00 | 99 | 1010.7 |
| 20260906081204 | 72 | 28 | 0.0 | 0.0 | 0.00 | 0.03 | 0.00 | 92 | 1010.6 |
| 20260906080815 | 71 | 25 | 0.0 | 0.0 | 0.00 | 0.00 | 0.00 | 99 | 1010.6 |
| 20260906080704 | 72 | 28 | 0.0 | 0.0 | 0.00 | 0.03 | 0.00 | 92 | 1010.5 |
| 20260906080311 | 71 | 37 | 0.0 | 0.9 | 0.00 | 0.00 | 0.00 | 99 | 1010.3 |
| 20260906080204 | 72 | 28 | 0.0 | 0.0 | 0.00 | 0.03 | 0.00 | 92 | 1010.4 |
| 20260906075811 | 71 | 66 | 0.0 | 0.0 | 0.00 | 0.00 | 0.00 | 99 | 1010.3 |
| 20260906075310 | 71 | 7 | 0.0 | 0.0 | 0.00 | 0.00 | 0.00 | 99 | 1010.5 |
| 20260906075204 | 72 | 28 | 0.0 | 0.0 | 0.00 | 0.03 | 0.00 | 92 | 1010.4 |
| 20260906074806 | 71 | 16 | 0.0 | 0.9 | 0.00 | 0.00 | 0.00 | 99 | 1010.3 |
| 20260906074704 | 72 | 28 | 0.0 | 0.0 | 0.00 | 0.03 | 0.00 | 92 | 1010.4 |
| 20260906074305 | 71 | 309 | 0.0 | 0.0 | 0.00 | 0.00 | 0.00 | 99 | 1010.3 |
| 20260906073804 | 71 | 309 | 0.0 | 0.0 | 0.00 | 0.00 | 0.00 | 99 | 1010.2 |
| 20260906073704 | 72 | 28 | 0.0 | 0.0 | 0.00 | 0.03 | 0.00 | 92 | 1010.2 |
| 20260906073259 | 71 | 309 | 0.0 | 0.0 | 0.00 | 0.00 | 0.00 | 99 | 1010.2 |
| 20260906073204 | 72 | 28 | 0.0 | 0.0 | 0.00 | 0.03 | 0.00 | 92 | 1010.3 |
| 20260906072755 | 71 | 309 | 0.0 | 0.0 | 0.00 | 0.00 | 0.00 | 99 | 1010.3 |
| 20260906072251 | 72 | 62 | 0.0 | 0.0 | 0.00 | 0.00 | 0.00 | 99 | 1010.2 |
| 20260906072204 | 72 | 28 | 0.0 | 0.0 | 0.00 | 0.03 | 0.00 | 92 | 1010.4 |
| 20260906071747 | 72 | 351 | 0.0 | 0.0 | 0.00 | 0.00 | 0.00 | 99 | 1010.3 |
| 20260906071704 | 72 | 28 | 0.0 | 0.0 | 0.00 | 0.03 | 0.00 | 92 | 1010.3 |
| 20260906071247 | 72 | 351 | 0.0 | 0.0 | 0.00 | 0.00 | 0.00 | 99 | 1010.2 |
| 20260906070744 | 72 | 351 | 0.0 | 0.0 | 0.00 | 0.00 | 0.00 | 99 | 1010.3 |
| 20260906070239 | 72 | 351 | 0.0 | 0.9 | 0.00 | 0.00 | 0.00 | 99 | 1010.2 |
| 20260906065738 | 72 | 89 | 0.0 | 0.9 | 0.00 | 0.00 | 0.00 | 99 | 1010.2 |
| 20260906065234 | 72 | 333 | 0.0 | 0.9 | 0.00 | 0.00 | 0.00 | 99 | 1010.1 |
| 20260906065204 | 72 | 28 | 0.0 | 0.0 | 0.00 | 0.03 | 0.00 | 92 | 1010.3 |
| 20260906064729 | 72 | 0 | 0.0 | 0.0 | 0.00 | 0.00 | 0.00 | 99 | 1010.4 |
| 20260906064704 | 73 | 28 | 0.0 | 0.0 | 0.00 | 0.03 | 0.00 | 92 | 1010.3 |
| 20260906064225 | 72 | 3 | 0.0 | 0.9 | 0.00 | 0.00 | 0.00 | 99 | 1010.3 |
| 20260906063720 | 72 | 321 | 0.0 | 1.7 | 0.00 | 0.00 | 0.00 | 99 | 1010.4 |
| 20260906063704 | 73 | 28 | 0.0 | 0.0 | 0.00 | 0.03 | 0.00 | 92 | 1010.5 |
| 20260906063215 | 72 | 351 | 0.0 | 0.9 | 0.00 | 0.00 | 0.00 | 99 | 1010.6 |
| 20260906063204 | 73 | 28 | 0.0 | 0.0 | 0.00 | 0.03 | 0.00 | 92 | 1010.5 |
| 20260906062710 | 72 | 343 | 0.0 | 0.9 | 0.00 | 0.00 | 0.00 | 99 | 1010.6 |
| 20260906062209 | 72 | 230 | 0.0 | 0.9 | 0.00 | 0.00 | 0.00 | 99 | 1010.6 |
| 20260906061703 | 73 | 28 | 0.0 | 0.0 | 0.00 | 0.03 | 0.00 | 92 | 1010.6 |
| 20260906061700 | 72 | 339 | 0.0 | 0.9 | 0.00 | 0.00 | 0.00 | 99 | 1010.5 |
| 20260906061204 | 73 | 28 | 0.0 | 0.0 | 0.00 | 0.03 | 0.00 | 92 | 1010.6 |
| 20260906061155 | 72 | 326 | 0.0 | 0.0 | 0.00 | 0.00 | 0.00 | 99 | 1010.4 |
| 20260906060704 | 73 | 28 | 0.0 | 0.0 | 0.00 | 0.03 | 0.00 | 92 | 1010.7 |
| 20260906060651 | 72 | 333 | 0.0 | 0.0 | 0.00 | 0.00 | 0.00 | 99 | 1010.8 |
| 20260906060203 | 73 | 28 | 0.0 | 0.0 | 0.00 | 0.03 | 0.00 | 92 | 1010.8 |
| 20260906060148 | 72 | 242 | 0.0 | 0.9 | 0.00 | 0.00 | 0.00 | 99 | 1010.6 |
| 20260906055643 | 72 | 172 | 0.0 | 0.9 | 0.00 | 0.00 | 0.00 | 99 | 1010.5 |
| 20260906055204 | 73 | 28 | 0.0 | 0.0 | 0.00 | 0.03 | 0.00 | 92 | 1010.9 |
| 20260906055138 | 72 | 310 | 0.0 | 0.9 | 0.00 | 0.00 | 0.00 | 99 | 1010.8 |
| 20260906054634 | 73 | 286 | 0.0 | 0.9 | 0.00 | 0.00 | 0.00 | 99 | 1010.9 |
| 20260906054129 | 73 | 311 | 0.0 | 0.9 | 0.00 | 0.00 | 0.00 | 99 | 1011.1 |
| 20260906053625 | 73 | 331 | 0.0 | 0.9 | 0.00 | 0.00 | 0.00 | 99 | 1011.0 |
| 20260906053204 | 73 | 28 | 0.0 | 0.0 | 0.00 | 0.03 | 0.00 | 92 | 1011.1 |
| 20260906053120 | 73 | 269 | 0.0 | 0.0 | 0.00 | 0.00 | 0.00 | 99 | 1011.0 |
| 20260906052703 | 73 | 28 | 0.0 | 0.0 | 0.00 | 0.03 | 0.00 | 92 | 1011.0 |
| 20260906052616 | 73 | 314 | 0.0 | 1.7 | 0.00 | 0.00 | 0.00 | 99 | 1011.1 |
| 20260906052113 | 73 | 50 | 0.0 | 1.7 | 0.00 | 0.00 | 0.00 | 99 | 1011.1 |
| 20260906051608 | 73 | 212 | 0.0 | 0.0 | 0.00 | 0.00 | 0.00 | 99 | 1011.1 |
| 20260906051103 | 73 | 212 | 0.0 | 0.0 | 0.00 | 0.00 | 0.00 | 99 | 1011.2 |
| 20260906050704 | 74 | 28 | 0.0 | 0.0 | 0.00 | 0.03 | 0.00 | 92 | 1011.4 |
| 20260906050558 | 73 | 261 | 0.0 | 0.9 | 0.00 | 0.00 | 0.00 | 99 | 1011.3 |
| 20260906050054 | 73 | 37 | 0.0 | 1.7 | 0.00 | 0.00 | 0.00 | 99 | 1011.4 |
| 20260906045703 | 74 | 28 | 0.0 | 0.0 | 0.00 | 0.03 | 0.03 | 92 | 1011.2 |
| 20260906045551 | 73 | 205 | 0.0 | 0.9 | 0.00 | 0.00 | 0.00 | 99 | 1011.1 |
| 20260906045048 | 73 | 205 | 0.0 | 0.9 | 0.00 | 0.00 | 0.00 | 99 | 1011.1 |
| 20260906044543 | 73 | 25 | 0.0 | 1.7 | 0.00 | 0.00 | 0.00 | 99 | 1011.4 |
| 20260906044038 | 73 | 75 | 0.0 | 0.9 | 0.00 | 0.00 | 0.00 | 99 | 1011.6 |
| 20260906043534 | 73 | 50 | 0.0 | 0.0 | 0.00 | 0.00 | 0.00 | 99 | 1011.5 |
| 20260906043205 | 74 | 28 | 0.0 | 0.0 | 0.00 | 0.03 | 0.03 | 92 | 1011.4 |
| 20260906043030 | 73 | 36 | 0.0 | 1.7 | 0.00 | 0.00 | 0.00 | 99 | 1011.7 |
| 20260906042528 | 73 | 315 | 0.0 | 1.7 | 0.00 | 0.00 | 0.00 | 99 | 1011.6 |
| 20260906042023 | 73 | 353 | 0.0 | 1.7 | 0.00 | 0.00 | 0.00 | 99 | 1011.5 |
| 20260906041705 | 74 | 28 | 0.0 | 0.0 | 0.00 | 0.03 | 0.03 | 92 | 1011.5 |
| 20260906041520 | 73 | 37 | 0.0 | 0.9 | 0.00 | 0.00 | 0.00 | 99 | 1011.6 |
| 20260906041019 | 73 | 309 | 0.0 | 0.0 | 0.00 | 0.00 | 0.00 | 99 | 1011.5 |
| 20260906040705 | 74 | 28 | 0.0 | 0.0 | 0.00 | 0.03 | 0.03 | 92 | 1011.6 |
| 20260906040514 | 73 | 309 | 0.0 | 0.9 | 0.00 | 0.00 | 0.00 | 99 | 1011.5 |
| 20260906040010 | 73 | 13 | 0.0 | 0.9 | 0.00 | 0.00 | 0.00 | 99 | 1011.7 |
| 20260906035705 | 74 | 28 | 0.0 | 0.0 | 0.00 | 0.03 | 0.03 | 92 | 1011.6 |
| 20260906035459 | 73 | 25 | 0.0 | 0.9 | 0.00 | 0.00 | 0.00 | 99 | 1011.6 |
| 20260906034954 | 73 | 235 | 0.0 | 1.7 | 0.00 | 0.00 | 0.00 | 99 | 1011.7 |
| 20260906034705 | 74 | 28 | 0.0 | 0.0 | 0.00 | 0.03 | 0.03 | 92 | 1011.7 |
| 20260906034448 | 73 | 129 | 0.0 | 0.0 | 0.00 | 0.00 | 0.00 | 99 | 1011.7 |
| 20260906034205 | 74 | 28 | 0.0 | 0.0 | 0.00 | 0.03 | 0.03 | 92 | 1011.7 |
| 20260906033939 | 73 | 151 | 0.0 | 0.9 | 0.00 | 0.00 | 0.00 | 99 | 1011.7 |
| 20260906033438 | 73 | 255 | 0.0 | 0.9 | 0.00 | 0.00 | 0.00 | 99 | 1011.7 |
| 20260906032934 | 73 | 145 | 0.0 | 0.0 | 0.00 | 0.00 | 0.00 | 99 | 1011.8 |
| 20260906032430 | 73 | 284 | 0.0 | 0.0 | 0.00 | 0.00 | 0.00 | 99 | 1011.6 |
| 20260906031924 | 73 | 284 | 0.0 | 0.0 | 0.00 | 0.00 | 0.00 | 99 | 1011.7 |
| 20260906031705 | 74 | 28 | 0.0 | 0.0 | 0.00 | 0.03 | 0.03 | 92 | 1011.6 |
| 20260906031420 | 73 | 284 | 0.0 | 0.9 | 0.00 | 0.00 | 0.00 | 99 | 1011.6 |
| 20260906031205 | 74 | 28 | 0.0 | 0.9 | 0.00 | 0.03 | 0.03 | 92 | 1011.6 |
| 20260906030916 | 74 | 255 | 0.0 | 0.0 | 0.00 | 0.00 | 0.00 | 99 | 1011.3 |
| 20260906030410 | 74 | 255 | 0.0 | 0.0 | 0.00 | 0.00 | 0.00 | 99 | 1011.5 |
| 20260906030205 | 74 | 28 | 0.0 | 0.9 | 0.00 | 0.03 | 0.03 | 92 | 1011.5 |
| 20260906025904 | 74 | 255 | 0.0 | 0.0 | 0.00 | 0.00 | 0.00 | 99 | 1011.5 |
| 20260906025359 | 74 | 255 | 0.0 | 0.0 | 0.00 | 0.00 | 0.00 | 99 | 1011.4 |
| 20260906024858 | 74 | 255 | 0.0 | 0.0 | 0.00 | 0.00 | 0.00 | 99 | 1011.4 |
| 20260906024705 | 75 | 28 | 0.0 | 0.9 | 0.00 | 0.03 | 0.03 | 91 | 1011.6 |
| 20260906024357 | 74 | 255 | 0.0 | 0.0 | 0.00 | 0.00 | 0.00 | 99 | 1011.5 |
| 20260906024205 | 75 | 28 | 0.9 | 0.9 | 0.00 | 0.03 | 0.03 | 91 | 1011.5 |
| 20260906023852 | 74 | 255 | 0.0 | 0.0 | 0.00 | 0.00 | 0.00 | 99 | 1011.6 |
| 20260906023705 | 75 | 28 | 0.0 | 0.0 | 0.00 | 0.03 | 0.03 | 91 | 1011.6 |
| 20260906023348 | 74 | 255 | 0.0 | 0.0 | 0.00 | 0.00 | 0.00 | 99 | 1011.5 |
| 20260906023204 | 75 | 28 | 0.0 | 0.0 | 0.00 | 0.03 | 0.03 | 91 | 1011.7 |
| 20260906022843 | 74 | 282 | 0.0 | 0.0 | 0.00 | 0.00 | 0.00 | 99 | 1011.6 |
| 20260906022705 | 75 | 28 | 0.0 | 0.0 | 0.00 | 0.03 | 0.03 | 91 | 1011.7 |
| 20260906022338 | 74 | 282 | 0.0 | 0.0 | 0.00 | 0.00 | 0.00 | 99 | 1011.5 |
| 20260906022204 | 75 | 28 | 0.0 | 0.0 | 0.00 | 0.03 | 0.03 | 91 | 1011.5 |
| 20260906021834 | 74 | 282 | 0.0 | 0.0 | 0.00 | 0.00 | 0.00 | 99 | 1011.4 |
| 20260906021333 | 74 | 314 | 0.0 | 0.9 | 0.00 | 0.00 | 0.00 | 99 | 1011.4 |
| 20260906021204 | 75 | 28 | 0.0 | 0.0 | 0.00 | 0.03 | 0.03 | 91 | 1011.2 |
| 20260906020828 | 75 | 37 | 0.0 | 0.0 | 0.00 | 0.00 | 0.00 | 99 | 1011.1 |
| 20260906020705 | 75 | 28 | 0.0 | 0.0 | 0.00 | 0.03 | 0.03 | 91 | 1011.1 |
| 20260906020327 | 75 | 37 | 0.0 | 0.0 | 0.00 | 0.00 | 0.00 | 99 | 1011.2 |
| 20260906015822 | 75 | 37 | 0.0 | 0.9 | 0.00 | 0.00 | 0.00 | 99 | 1011.3 |
| 20260906015705 | 75 | 28 | 0.0 | 0.0 | 0.00 | 0.03 | 0.03 | 91 | 1011.1 |
| 20260906015321 | 75 | 50 | 0.0 | 0.0 | 0.00 | 0.00 | 0.00 | 99 | 1011.2 |
| 20260906015205 | 75 | 28 | 0.0 | 0.0 | 0.00 | 0.03 | 0.03 | 91 | 1011.1 |
| 20260906014820 | 75 | 50 | 0.0 | 0.0 | 0.00 | 0.00 | 0.00 | 99 | 1011.4 |
| 20260906014316 | 75 | 50 | 0.0 | 0.0 | 0.00 | 0.00 | 0.00 | 99 | 1011.2 |
| 20260906013812 | 75 | 50 | 0.0 | 0.0 | 0.00 | 0.00 | 0.00 | 99 | 1011.4 |
| 20260906013705 | 76 | 28 | 0.0 | 0.0 | 0.00 | 0.03 | 0.03 | 91 | 1011.1 |
| 20260906013307 | 75 | 50 | 0.0 | 0.0 | 0.00 | 0.00 | 0.00 | 99 | 1010.9 |
| 20260906012803 | 75 | 50 | 0.0 | 0.0 | 0.00 | 0.00 | 0.00 | 99 | 1011.2 |
| 20260906012704 | 76 | 28 | 0.0 | 0.0 | 0.00 | 0.03 | 0.03 | 90 | 1011.2 |
| 20260906012257 | 75 | 50 | 0.0 | 0.9 | 0.00 | 0.00 | 0.00 | 99 | 1011.1 |
| 20260906012205 | 76 | 28 | 0.0 | 0.0 | 0.00 | 0.03 | 0.03 | 90 | 1011.1 |
| 20260906011753 | 75 | 269 | 0.0 | 0.0 | 0.00 | 0.00 | 0.00 | 99 | 1011.1 |
| 20260906011704 | 76 | 28 | 0.0 | 0.0 | 0.00 | 0.03 | 0.03 | 90 | 1011.1 |
| 20260906011252 | 75 | 269 | 0.0 | 0.0 | 0.00 | 0.00 | 0.00 | 99 | 1010.8 |
| 20260906011204 | 76 | 28 | 0.0 | 0.0 | 0.00 | 0.03 | 0.03 | 90 | 1011.1 |
| 20260906010748 | 75 | 269 | 0.0 | 0.0 | 0.00 | 0.00 | 0.00 | 99 | 1011.1 |
| 20260906010244 | 75 | 269 | 0.0 | 0.0 | 0.00 | 0.00 | 0.00 | 99 | 1011.1 |
| 20260906005739 | 75 | 269 | 0.0 | 0.0 | 0.00 | 0.00 | 0.00 | 99 | 1011.1 |
| 20260906005237 | 75 | 269 | 0.0 | 0.0 | 0.00 | 0.00 | 0.00 | 99 | 1011.1 |
| 20260906004737 | 75 | 269 | 0.0 | 0.0 | 0.00 | 0.00 | 0.00 | 99 | 1010.9 |
| 20260906004227 | 75 | 37 | 0.0 | 0.0 | 0.00 | 0.00 | 0.00 | 99 | 1011.2 |
| 20260906003722 | 75 | 37 | 0.0 | 0.0 | 0.00 | 0.00 | 0.00 | 99 | 1011.0 |
| 20260906003218 | 75 | 37 | 0.0 | 0.0 | 0.00 | 0.00 | 0.00 | 99 | 1011.1 |
| 20260906003205 | 76 | 28 | 0.0 | 0.9 | 0.00 | 0.03 | 0.03 | 89 | 1010.9 |
| 20260906002717 | 75 | 62 | 0.0 | 0.9 | 0.00 | 0.00 | 0.00 | 99 | 1010.9 |
| 20260906002212 | 75 | 37 | 0.0 | 0.0 | 0.00 | 0.00 | 0.00 | 99 | 1010.8 |
| 20260906001708 | 75 | 44 | 0.0 | 0.9 | 0.00 | 0.00 | 0.00 | 99 | 1010.8 |
| 20260906001705 | 77 | 28 | 0.0 | 0.9 | 0.00 | 0.03 | 0.03 | 89 | 1010.8 |
| 20260906001208 | 76 | 297 | 0.0 | 0.0 | 0.00 | 0.00 | 0.00 | 99 | 1010.5 |
| 20260906000705 | 77 | 28 | 0.0 | 0.9 | 0.00 | 0.03 | 0.03 | 89 | 1010.7 |
| 20260906000703 | 76 | 249 | 0.9 | 1.7 | 0.00 | 0.00 | 0.00 | 99 | 1010.5 |
| 20260906000158 | 76 | 50 | 0.0 | 0.9 | 0.00 | 0.00 | 0.00 | 99 | 1010.5 |
| 20260905235704 | 77 | 28 | 0.0 | 0.9 | 0.00 | 0.03 | 0.03 | 89 | 1010.5 |
| 20260905235657 | 76 | 269 | 0.0 | 1.7 | 0.00 | 0.00 | 0.00 | 99 | 1010.4 |
| 20260905235205 | 77 | 28 | 0.9 | 0.9 | 0.00 | 0.03 | 0.03 | 89 | 1010.5 |
| 20260905235152 | 76 | 322 | 0.0 | 0.0 | 0.00 | 0.00 | 0.00 | 99 | 1010.4 |
| 20260905234705 | 77 | 28 | 0.0 | 0.0 | 0.00 | 0.03 | 0.03 | 89 | 1010.5 |
| 20260905234647 | 76 | 292 | 0.0 | 1.7 | 0.00 | 0.00 | 0.00 | 99 | 1010.3 |
| 20260905234205 | 77 | 28 | 0.0 | 0.0 | 0.00 | 0.03 | 0.03 | 89 | 1010.3 |
| 20260905234143 | 76 | 25 | 0.0 | 1.7 | 0.00 | 0.00 | 0.00 | 99 | 1010.3 |
| 20260905233638 | 76 | 37 | 0.0 | 0.9 | 0.00 | 0.00 | 0.00 | 99 | 1010.4 |
| 20260905233204 | 77 | 28 | 0.0 | 0.9 | 0.00 | 0.03 | 0.03 | 88 | 1010.2 |
| 20260905233137 | 76 | 132 | 0.0 | 0.9 | 0.00 | 0.00 | 0.00 | 99 | 1010.2 |
| 20260905232633 | 76 | 322 | 0.0 | 0.0 | 0.00 | 0.00 | 0.00 | 99 | 1009.9 |
| 20260905232128 | 76 | 322 | 0.0 | 0.9 | 0.00 | 0.00 | 0.00 | 99 | 1009.8 |
| 20260905231705 | 77 | 28 | 0.0 | 0.9 | 0.00 | 0.03 | 0.03 | 89 | 1009.9 |
| 20260905231623 | 76 | 25 | 0.0 | 0.0 | 0.00 | 0.00 | 0.00 | 99 | 1009.9 |
| 20260905231119 | 76 | 25 | 0.0 | 0.0 | 0.00 | 0.00 | 0.00 | 99 | 1010.1 |
| 20260905230704 | 77 | 28 | 0.0 | 0.9 | 0.00 | 0.03 | 0.03 | 89 | 1009.7 |
| 20260905230614 | 76 | 7 | 0.0 | 0.9 | 0.00 | 0.00 | 0.00 | 99 | 1009.6 |
| 20260905230204 | 77 | 28 | 0.0 | 0.0 | 0.00 | 0.03 | 0.03 | 88 | 1009.5 |
| 20260905230112 | 76 | 333 | 0.0 | 0.0 | 0.00 | 0.00 | 0.00 | 99 | 1009.6 |
| 20260905225606 | 76 | 329 | 0.9 | 1.7 | 0.00 | 0.00 | 0.00 | 99 | 1009.2 |
| 20260905225204 | 77 | 28 | 0.0 | 0.0 | 0.00 | 0.03 | 0.03 | 88 | 1009.2 |
| 20260905225101 | 76 | 129 | 0.0 | 0.9 | 0.00 | 0.00 | 0.00 | 99 | 1009.2 |
| 20260905224704 | 77 | 28 | 0.0 | 0.0 | 0.00 | 0.03 | 0.03 | 87 | 1009.2 |
| 20260905224555 | 76 | 117 | 0.0 | 0.9 | 0.00 | 0.00 | 0.00 | 99 | 1008.9 |
| 20260905224054 | 76 | 309 | 0.0 | 0.0 | 0.00 | 0.00 | 0.00 | 98 | 1009.1 |
| 20260905223552 | 75 | 304 | 0.0 | 0.0 | 0.00 | 0.00 | 0.00 | 98 | 1009.2 |
| 20260905223048 | 75 | 304 | 0.0 | 0.0 | 0.00 | 0.00 | 0.00 | 98 | 1009.3 |
| 20260905222543 | 75 | 304 | 0.0 | 0.0 | 0.00 | 0.00 | 0.00 | 98 | 1009.5 |
| 20260905222205 | 77 | 28 | 0.0 | 0.9 | 0.01 | 0.03 | 0.03 | 86 | 1009.6 |
| 20260905222038 | 75 | 304 | 0.0 | 1.7 | 0.00 | 0.00 | 0.00 | 98 | 1009.4 |
| 20260905221535 | 75 | 326 | 0.0 | 0.0 | 0.00 | 0.00 | 0.00 | 98 | 1009.7 |
| 20260905221030 | 75 | 37 | 0.0 | 0.0 | 0.00 | 0.00 | 0.00 | 98 | 1010.1 |
| 20260905220705 | 78 | 28 | 0.0 | 0.0 | 0.01 | 0.03 | 0.03 | 84 | 1010.0 |
| 20260905220525 | 75 | 322 | 0.0 | 0.0 | 0.00 | 0.00 | 0.00 | 97 | 1010.2 |
| 20260905220021 | 75 | 322 | 0.0 | 0.9 | 0.00 | 0.00 | 0.00 | 97 | 1010.2 |
| 20260905215515 | 75 | 75 | 0.0 | 0.0 | 0.00 | 0.00 | 0.00 | 97 | 1009.9 |
| 20260905215204 | 78 | 29 | 0.0 | 0.0 | 0.03 | 0.03 | 0.03 | 82 | 1009.9 |
| 20260905215012 | 75 | 315 | 0.0 | 0.9 | 0.00 | 0.00 | 0.00 | 97 | 1010.0 |
| 20260905214704 | 79 | 219 | 0.0 | 0.0 | 0.03 | 0.03 | 0.03 | 82 | 1009.7 |
| 20260905214507 | 75 | 322 | 0.0 | 0.9 | 0.00 | 0.00 | 0.00 | 96 | 1009.8 |
| 20260905214205 | 79 | 219 | 0.0 | 0.0 | 0.03 | 0.03 | 0.03 | 81 | 1009.7 |
| 20260905214002 | 75 | 159 | 0.0 | 0.0 | 0.00 | 0.00 | 0.00 | 95 | 1009.8 |
| 20260905213458 | 75 | 159 | 0.0 | 1.7 | 0.00 | 0.00 | 0.00 | 95 | 1009.9 |
| 20260905213205 | 80 | 219 | 0.0 | 0.0 | 0.03 | 0.03 | 0.03 | 78 | 1009.8 |
| 20260905212958 | 75 | 242 | 0.0 | 0.9 | 0.00 | 0.00 | 0.00 | 95 | 1009.4 |
| 20260905212704 | 80 | 219 | 0.0 | 0.0 | 0.03 | 0.03 | 0.03 | 77 | 1009.5 |
| 20260905212453 | 76 | 297 | 0.0 | 1.7 | 0.00 | 0.00 | 0.00 | 94 | 1009.3 |
| 20260905212204 | 81 | 219 | 0.0 | 0.0 | 0.02 | 0.02 | 0.02 | 77 | 1009.5 |
| 20260905211952 | 77 | 297 | 0.0 | 0.0 | 0.00 | 0.00 | 0.00 | 92 | 1009.4 |
| 20260905211704 | 81 | 219 | 0.0 | 0.0 | 0.02 | 0.02 | 0.02 | 76 | 1009.6 |
| 20260905211448 | 77 | 164 | 0.0 | 0.0 | 0.00 | 0.00 | 0.00 | 91 | 1009.5 |
| 20260905210943 | 77 | 297 | 0.0 | 0.0 | 0.00 | 0.00 | 0.00 | 89 | 1009.6 |
| 20260905210439 | 78 | 297 | 0.0 | 0.0 | 0.00 | 0.00 | 0.00 | 86 | 1009.8 |
| 20260905205938 | 79 | 281 | 0.0 | 1.7 | 0.00 | 0.00 | 0.00 | 84 | 1009.9 |
| 20260905205704 | 84 | 53 | 0.0 | 0.0 | 0.00 | 0.00 | 0.00 | 69 | 1009.7 |
| 20260905205433 | 80 | 343 | 0.0 | 1.7 | 0.00 | 0.00 | 0.00 | 80 | 1010.0 |
| 20260905205204 | 84 | 53 | 0.0 | 0.9 | 0.00 | 0.00 | 0.00 | 68 | 1009.7 |
| 20260905204932 | 80 | 60 | 0.0 | 1.7 | 0.00 | 0.00 | 0.00 | 77 | 1009.8 |
| 20260905204704 | 85 | 53 | 0.0 | 1.7 | 0.00 | 0.00 | 0.00 | 65 | 1009.6 |
| 20260905204428 | 81 | 255 | 0.0 | 1.7 | 0.00 | 0.00 | 0.00 | 77 | 1009.6 |
| 20260905203927 | 81 | 255 | 0.0 | 0.0 | 0.00 | 0.00 | 0.00 | 76 | 1009.6 |
| 20260905203705 | 85 | 42 | 0.0 | 1.7 | 0.00 | 0.00 | 0.00 | 64 | 1009.6 |
| 20260905203422 | 81 | 351 | 0.0 | 0.9 | 0.00 | 0.00 | 0.00 | 76 | 1009.6 |
| 20260905203204 | 86 | 261 | 0.9 | 0.9 | 0.00 | 0.00 | 0.00 | 63 | 1009.7 |
| 20260905202918 | 82 | 342 | 0.9 | 0.9 | 0.00 | 0.00 | 0.00 | 76 | 1009.6 |
| 20260905202705 | 86 | 281 | 0.9 | 1.7 | 0.00 | 0.00 | 0.00 | 63 | 1009.4 |
| 20260905202413 | 82 | 54 | 0.9 | 1.7 | 0.00 | 0.00 | 0.00 | 74 | 1009.3 |
| 20260905201908 | 83 | 35 | 0.0 | 1.7 | 0.00 | 0.00 | 0.00 | 73 | 1009.6 |
| 20260905201403 | 83 | 141 | 0.0 | 2.6 | 0.00 | 0.00 | 0.00 | 72 | 1009.5 |
| 20260905201204 | 88 | 316 | 1.7 | 5.2 | 0.00 | 0.00 | 0.00 | 59 | 1009.8 |
| 20260905200857 | 83 | 169 | 0.0 | 5.2 | 0.00 | 0.00 | 0.00 | 72 | 1010.0 |
| 20260905200354 | 84 | 297 | 0.9 | 2.6 | 0.00 | 0.00 | 0.00 | 72 | 1009.8 |
| 20260905200205 | 91 | 319 | 0.9 | 2.6 | 0.00 | 0.00 | 0.00 | 56 | 1009.4 |
| 20260905195851 | 84 | 275 | 1.7 | 3.5 | 0.00 | 0.00 | 0.00 | 70 | 1009.5 |
| 20260905195704 | 92 | 334 | 1.7 | 2.6 | 0.00 | 0.00 | 0.00 | 54 | 1009.5 |
| 20260905195341 | 85 | 2 | 2.6 | 3.5 | 0.00 | 0.00 | 0.00 | 70 | 1009.6 |
| 20260905194837 | 86 | 329 | 1.7 | 4.3 | 0.00 | 0.00 | 0.00 | 70 | 1009.6 |
| 20260905194704 | 96 | 338 | 2.6 | 5.2 | 0.00 | 0.00 | 0.00 | 51 | 1009.5 |
| 20260905194337 | 87 | 282 | 2.6 | 9.6 | 0.00 | 0.00 | 0.00 | 68 | 1009.7 |
| 20260905193836 | 89 | 354 | 1.7 | 1.7 | 0.00 | 0.00 | 0.00 | 69 | 1009.3 |
| 20260905193705 | 97 | 309 | 0.0 | 0.9 | 0.00 | 0.00 | 0.00 | 50 | 1009.2 |
| 20260905193331 | 91 | 325 | 0.0 | 1.7 | 0.00 | 0.00 | 0.00 | 65 | 1009.2 |
| 20260905192827 | 91 | 326 | 0.0 | 1.7 | 0.00 | 0.00 | 0.00 | 62 | 1009.0 |
| 20260905192322 | 92 | 343 | 0.0 | 1.7 | 0.00 | 0.00 | 0.00 | 61 | 1008.9 |
| 20260905191821 | 93 | 284 | 0.0 | 0.9 | 0.00 | 0.00 | 0.00 | 59 | 1008.9 |
| 20260905191320 | 94 | 291 | 0.0 | 1.7 | 0.00 | 0.00 | 0.00 | 58 | 1008.7 |
| 20260905191205 | 98 | 352 | 0.0 | 1.7 | 0.00 | 0.00 | 0.00 | 49 | 1008.8 |
| 20260905190819 | 94 | 290 | 0.0 | 0.9 | 0.00 | 0.00 | 0.00 | 56 | 1008.8 |
| 20260905190705 | 98 | 5 | 0.0 | 0.9 | 0.00 | 0.00 | 0.00 | 50 | 1008.8 |
| 20260905190313 | 95 | 284 | 0.0 | 1.7 | 0.00 | 0.00 | 0.00 | 56 | 1008.9 |
| 20260905190204 | 99 | 269 | 0.9 | 0.9 | 0.00 | 0.00 | 0.00 | 49 | 1008.9 |
| 20260905185812 | 95 | 309 | 0.0 | 0.9 | 0.00 | 0.00 | 0.00 | 53 | 1009.0 |
| 20260905185704 | 99 | 283 | 0.0 | 0.9 | 0.00 | 0.00 | 0.00 | 47 | 1009.0 |
| 20260905185307 | 96 | 306 | 1.7 | 2.6 | 0.00 | 0.00 | 0.00 | 54 | 1008.9 |
| 20260905185204 | 99 | 225 | 0.0 | 0.9 | 0.00 | 0.00 | 0.00 | 47 | 1008.9 |
| 20260905184806 | 96 | 285 | 1.7 | 1.7 | 0.00 | 0.00 | 0.00 | 51 | 1009.0 |
| 20260905184705 | 99 | 59 | 1.7 | 2.6 | 0.00 | 0.00 | 0.00 | 43 | 1008.9 |
| 20260905184300 | 97 | 313 | 1.7 | 2.6 | 0.00 | 0.00 | 0.00 | 49 | 1009.0 |
| 20260905184205 | 99 | 253 | 0.9 | 1.7 | 0.00 | 0.00 | 0.00 | 47 | 1009.0 |
| 20260905183759 | 98 | 267 | 2.6 | 2.6 | 0.00 | 0.00 | 0.00 | 46 | 1008.9 |
| 20260905183705 | 99 | 245 | 0.9 | 0.9 | 0.00 | 0.00 | 0.00 | 46 | 1009.1 |
| 20260905183255 | 98 | 181 | 0.9 | 1.7 | 0.00 | 0.00 | 0.00 | 51 | 1009.0 |
| 20260905183204 | 98 | 285 | 0.0 | 1.7 | 0.00 | 0.00 | 0.00 | 46 | 1009.1 |
| 20260905182754 | 97 | 230 | 0.0 | 1.7 | 0.00 | 0.00 | 0.00 | 49 | 1009.1 |
| 20260905182704 | 98 | 286 | 0.9 | 1.7 | 0.00 | 0.00 | 0.00 | 49 | 1009.4 |
| 20260905182253 | 96 | 335 | 1.7 | 1.7 | 0.00 | 0.00 | 0.00 | 53 | 1009.5 |
| 20260905182204 | 98 | 110 | 0.9 | 1.7 | 0.00 | 0.00 | 0.00 | 48 | 1009.6 |
| 20260905181749 | 96 | 313 | 1.7 | 3.5 | 0.00 | 0.00 | 0.00 | 48 | 1009.4 |
| 20260905181704 | 98 | 277 | 0.9 | 0.9 | 0.00 | 0.00 | 0.00 | 49 | 1009.7 |
| 20260905181243 | 96 | 299 | 1.7 | 2.6 | 0.00 | 0.00 | 0.00 | 56 | 1009.6 |
| 20260905180737 | 96 | 271 | 1.7 | 2.6 | 0.00 | 0.00 | 0.00 | 53 | 1009.7 |
| 20260905180705 | 98 | 277 | 0.9 | 1.7 | 0.00 | 0.00 | 0.00 | 50 | 1009.7 |
| 20260905180233 | 96 | 276 | 1.7 | 2.6 | 0.00 | 0.00 | 0.00 | 53 | 1009.7 |
| 20260905175732 | 95 | 295 | 1.7 | 1.7 | 0.00 | 0.00 | 0.00 | 55 | 1010.1 |
| 20260905175227 | 95 | 271 | 1.7 | 2.6 | 0.00 | 0.00 | 0.00 | 52 | 1010.2 |
| 20260905175205 | 99 | 338 | 0.9 | 1.7 | 0.00 | 0.00 | 0.00 | 49 | 1010.0 |
| 20260905174722 | 96 | 274 | 0.9 | 2.6 | 0.00 | 0.00 | 0.00 | 53 | 1010.3 |
| 20260905174218 | 96 | 329 | 0.0 | 2.6 | 0.00 | 0.00 | 0.00 | 55 | 1010.3 |
| 20260905174205 | 99 | 276 | 0.9 | 1.7 | 0.00 | 0.00 | 0.00 | 52 | 1010.4 |
| 20260905173714 | 96 | 266 | 3.5 | 5.2 | 0.00 | 0.00 | 0.00 | 54 | 1010.4 |
| 20260905173704 | 98 | 308 | 0.9 | 2.6 | 0.00 | 0.00 | 0.00 | 50 | 1010.5 |
| 20260905173210 | 96 | 320 | 3.5 | 4.3 | 0.00 | 0.00 | 0.00 | 56 | 1010.7 |
| 20260905172709 | 95 | 267 | 3.5 | 3.5 | 0.00 | 0.00 | 0.00 | 54 | 1010.6 |
| 20260905172704 | 98 | 271 | 0.0 | 0.9 | 0.00 | 0.00 | 0.00 | 52 | 1010.7 |
| 20260905172203 | 95 | 240 | 0.0 | 2.6 | 0.00 | 0.00 | 0.00 | 55 | 1010.8 |
| 20260905171659 | 95 | 298 | 1.7 | 3.5 | 0.00 | 0.00 | 0.00 | 56 | 1010.9 |
| 20260905171204 | 97 | 234 | 0.9 | 2.6 | 0.00 | 0.00 | 0.00 | 53 | 1011.0 |
| 20260905171155 | 95 | 300 | 1.7 | 2.6 | 0.00 | 0.00 | 0.00 | 61 | 1011.2 |
| 20260905170705 | 97 | 310 | 0.9 | 1.7 | 0.00 | 0.00 | 0.00 | 55 | 1011.0 |
| 20260905170652 | 95 | 273 | 2.6 | 3.5 | 0.00 | 0.00 | 0.00 | 56 | 1010.8 |
| 20260905170147 | 95 | 274 | 1.7 | 2.6 | 0.00 | 0.00 | 0.00 | 56 | 1011.0 |
| 20260905165646 | 94 | 299 | 0.0 | 3.5 | 0.00 | 0.00 | 0.00 | 58 | 1011.1 |
| 20260905165141 | 94 | 321 | 1.7 | 3.5 | 0.00 | 0.00 | 0.00 | 57 | 1011.3 |
| 20260905164704 | 95 | 288 | 0.9 | 0.9 | 0.00 | 0.00 | 0.00 | 57 | 1011.1 |
| 20260905164636 | 94 | 280 | 1.7 | 2.6 | 0.00 | 0.00 | 0.00 | 58 | 1011.3 |
| 20260905164205 | 95 | 321 | 0.9 | 1.7 | 0.00 | 0.00 | 0.00 | 54 | 1011.2 |
| 20260905164130 | 94 | 264 | 3.5 | 4.3 | 0.00 | 0.00 | 0.00 | 59 | 1011.4 |
| 20260905163626 | 94 | 287 | 1.7 | 2.6 | 0.00 | 0.00 | 0.00 | 60 | 1011.4 |
| 20260905163123 | 93 | 298 | 1.7 | 2.6 | 0.00 | 0.00 | 0.00 | 60 | 1011.5 |
| 20260905162619 | 93 | 4 | 0.0 | 3.5 | 0.00 | 0.00 | 0.00 | 60 | 1011.5 |
| 20260905162117 | 93 | 312 | 0.0 | 2.6 | 0.00 | 0.00 | 0.00 | 61 | 1011.5 |
| 20260905161612 | 93 | 276 | 1.7 | 3.5 | 0.00 | 0.00 | 0.00 | 61 | 1011.7 |
| 20260905161109 | 93 | 299 | 1.7 | 2.6 | 0.00 | 0.00 | 0.00 | 61 | 1011.5 |
| 20260905160704 | 92 | 336 | 0.9 | 1.7 | 0.00 | 0.00 | 0.00 | 61 | 1011.6 |
| 20260905160608 | 93 | 269 | 1.7 | 2.6 | 0.00 | 0.00 | 0.00 | 63 | 1011.8 |
| 20260905160204 | 92 | 312 | 0.9 | 2.6 | 0.00 | 0.00 | 0.00 | 63 | 1011.7 |
| 20260905155558 | 91 | 236 | 0.9 | 2.6 | 0.00 | 0.00 | 0.00 | 67 | 1011.8 |
| 20260905155057 | 91 | 317 | 0.0 | 3.5 | 0.00 | 0.00 | 0.00 | 66 | 1012.0 |
| 20260905154704 | 90 | 102 | 0.0 | 0.9 | 0.00 | 0.00 | 0.00 | 66 | 1012.0 |
| 20260905154551 | 91 | 294 | 0.0 | 2.6 | 0.00 | 0.00 | 0.00 | 66 | 1012.1 |
| 20260905154204 | 89 | 186 | 0.9 | 2.6 | 0.00 | 0.00 | 0.00 | 68 | 1012.1 |
| 20260905154047 | 91 | 280 | 1.7 | 2.6 | 0.00 | 0.00 | 0.00 | 70 | 1012.2 |
| 20260905153705 | 88 | 191 | 0.0 | 1.7 | 0.00 | 0.00 | 0.00 | 69 | 1012.1 |
| 20260905153543 | 91 | 265 | 1.7 | 2.6 | 0.00 | 0.00 | 0.00 | 69 | 1012.1 |
| 20260905153043 | 89 | 193 | 0.9 | 2.6 | 0.00 | 0.00 | 0.00 | 70 | 1012.2 |
| 20260905152543 | 89 | 279 | 1.7 | 3.5 | 0.00 | 0.00 | 0.00 | 70 | 1012.0 |
| 20260905152038 | 87 | 281 | 2.6 | 3.5 | 0.00 | 0.00 | 0.00 | 72 | 1012.2 |
| 20260905151527 | 87 | 44 | 0.0 | 1.7 | 0.00 | 0.00 | 0.00 | 76 | 1012.4 |
| 20260905151023 | 87 | 0 | 0.0 | 2.6 | 0.00 | 0.00 | 0.00 | 74 | 1012.2 |
| 20260905150518 | 86 | 322 | 0.0 | 2.6 | 0.00 | 0.00 | 0.00 | 75 | 1012.2 |
| 20260905150204 | 85 | 284 | 0.9 | 0.9 | 0.00 | 0.00 | 0.00 | 75 | 1012.5 |
| 20260905150015 | 86 | 275 | 2.6 | 2.6 | 0.00 | 0.00 | 0.00 | 78 | 1012.3 |
| 20260905145704 | 85 | 284 | 0.9 | 1.7 | 0.00 | 0.00 | 0.00 | 75 | 1012.5 |
| 20260905145509 | 85 | 311 | 0.0 | 1.7 | 0.00 | 0.00 | 0.00 | 79 | 1012.3 |
| 20260905145204 | 85 | 256 | 0.9 | 1.7 | 0.00 | 0.00 | 0.00 | 76 | 1012.4 |
| 20260905145008 | 85 | 299 | 0.0 | 0.9 | 0.00 | 0.00 | 0.00 | 80 | 1012.2 |
| 20260905144503 | 85 | 284 | 0.0 | 1.7 | 0.00 | 0.00 | 0.00 | 78 | 1012.3 |
| 20260905144204 | 84 | 277 | 0.0 | 1.7 | 0.00 | 0.00 | 0.00 | 76 | 1012.3 |
| 20260905144002 | 85 | 278 | 0.9 | 2.6 | 0.00 | 0.00 | 0.00 | 79 | 1012.4 |
| 20260905143704 | 84 | 277 | 0.9 | 1.7 | 0.00 | 0.00 | 0.00 | 76 | 1012.3 |
| 20260905143456 | 84 | 296 | 0.9 | 2.6 | 0.00 | 0.00 | 0.00 | 79 | 1012.3 |
| 20260905143205 | 84 | 308 | 0.9 | 2.6 | 0.00 | 0.00 | 0.00 | 76 | 1012.4 |
| 20260905142951 | 84 | 297 | 0.0 | 0.9 | 0.00 | 0.00 | 0.00 | 79 | 1012.3 |
| 20260905142704 | 84 | 296 | 0.9 | 1.7 | 0.00 | 0.00 | 0.00 | 76 | 1012.4 |
| 20260905142450 | 84 | 276 | 2.6 | 3.5 | 0.00 | 0.00 | 0.00 | 81 | 1012.4 |
| 20260905142204 | 84 | 213 | 0.9 | 0.9 | 0.00 | 0.00 | 0.00 | 77 | 1012.5 |
| 20260905141945 | 84 | 310 | 0.0 | 2.6 | 0.00 | 0.00 | 0.00 | 80 | 1012.5 |
| 20260905141704 | 84 | 202 | 1.7 | 2.6 | 0.00 | 0.00 | 0.00 | 76 | 1012.3 |
| 20260905141440 | 83 | 272 | 0.0 | 2.6 | 0.00 | 0.00 | 0.00 | 81 | 1012.4 |
| 20260905140936 | 82 | 207 | 1.7 | 2.6 | 0.00 | 0.00 | 0.00 | 83 | 1012.4 |
| 20260905140705 | 83 | 157 | 0.9 | 2.6 | 0.00 | 0.00 | 0.00 | 77 | 1012.3 |
| 20260905140431 | 82 | 294 | 0.9 | 2.6 | 0.00 | 0.00 | 0.00 | 83 | 1012.2 |
| 20260905140204 | 83 | 192 | 0.0 | 2.6 | 0.00 | 0.00 | 0.00 | 78 | 1012.3 |
| 20260905135930 | 82 | 308 | 1.7 | 2.6 | 0.00 | 0.00 | 0.00 | 84 | 1012.1 |
| 20260905135425 | 82 | 273 | 0.0 | 2.6 | 0.00 | 0.00 | 0.00 | 84 | 1012.1 |
| 20260905135204 | 83 | 263 | 0.9 | 1.7 | 0.00 | 0.00 | 0.00 | 79 | 1012.1 |
| 20260905134921 | 81 | 291 | 0.9 | 2.6 | 0.00 | 0.00 | 0.00 | 85 | 1012.0 |
| 20260905134420 | 81 | 180 | 0.0 | 2.6 | 0.00 | 0.00 | 0.00 | 85 | 1012.1 |
| 20260905133914 | 81 | 306 | 0.0 | 1.7 | 0.00 | 0.00 | 0.00 | 87 | 1012.2 |
| 20260905133409 | 81 | 313 | 0.9 | 2.6 | 0.00 | 0.00 | 0.00 | 87 | 1012.3 |
| 20260905132908 | 80 | 282 | 2.6 | 2.6 | 0.00 | 0.00 | 0.00 | 88 | 1012.3 |
| 20260905132358 | 80 | 308 | 0.9 | 1.7 | 0.00 | 0.00 | 0.00 | 89 | 1012.2 |
| 20260905131858 | 80 | 224 | 0.0 | 2.6 | 0.00 | 0.00 | 0.00 | 89 | 1012.3 |
| 20260905131349 | 80 | 284 | 0.0 | 1.7 | 0.00 | 0.00 | 0.00 | 89 | 1012.2 |
| 20260905131204 | 81 | 296 | 0.9 | 1.7 | 0.00 | 0.00 | 0.00 | 82 | 1012.3 |
| 20260905130843 | 79 | 271 | 0.9 | 2.6 | 0.00 | 0.00 | 0.00 | 89 | 1012.2 |
| 20260905130704 | 81 | 97 | 0.9 | 6.1 | 0.00 | 0.00 | 0.00 | 83 | 1012.4 |
| 20260905130342 | 79 | 241 | 0.9 | 1.7 | 0.00 | 0.00 | 0.00 | 90 | 1012.3 |
| 20260905125837 | 79 | 254 | 2.6 | 2.6 | 0.00 | 0.00 | 0.00 | 91 | 1012.4 |
| 20260905125705 | 80 | 264 | 0.9 | 1.7 | 0.00 | 0.00 | 0.00 | 84 | 1012.6 |
| 20260905125332 | 78 | 261 | 0.0 | 2.6 | 0.00 | 0.00 | 0.00 | 91 | 1012.6 |
| 20260905124829 | 78 | 296 | 1.7 | 2.6 | 0.00 | 0.00 | 0.00 | 92 | 1012.4 |
| 20260905124325 | 78 | 287 | 1.7 | 1.7 | 0.00 | 0.00 | 0.00 | 93 | 1012.4 |
| 20260905123824 | 77 | 269 | 0.0 | 1.7 | 0.00 | 0.00 | 0.00 | 93 | 1012.4 |
| 20260905123322 | 77 | 285 | 0.9 | 1.7 | 0.00 | 0.00 | 0.00 | 94 | 1012.6 |
| 20260905123204 | 78 | 187 | 0.0 | 1.7 | 0.00 | 0.00 | 0.00 | 89 | 1012.6 |